When you browse on this site, cookies collect data to enhance your experience and personalize the content and advertising you see.
Visit our Privacy Policy to learn more. By continuing to use the site, you agree to this use of cookies and data.
  • In Schweiz
  • Länderverzeichnis
  • Für 7 Tage
  • Wassertemperatur
  • Wetterkarte
  • Widgets
  • user-avatar
    Anmelden

    Stündliche Wetter Lubango

    Heute, 15 September, Sonntag

    Zeit Temperatur Niederschläge Wind Luftdruck Luftfeuchtigkeit
    00:00 +17°C° 0 mm 2 m/S 608 mmHg 29%
    01:00 +17°C° 0 mm 2 m/S 608 mmHg 27%
    02:00 +17°C° 0 mm 2 m/S 608 mmHg 27%
    03:00 +16°C° 0 mm 2 m/S 608 mmHg 27%
    04:00 +16°C° 0 mm 2 m/S 607 mmHg 28%
    05:00 +17°C° 0 mm 2 m/S 608 mmHg 26%
    06:00 +18°C° 0 mm 2 m/S 609 mmHg 25%
    07:00 +18°C° 0 mm 3 m/S 610 mmHg 23%
    08:00 +22°C° 0 mm 3 m/S 611 mmHg 19%
    09:00 +26°C° 0 mm 4 m/S 612 mmHg 14%
    10:00 +30°C° 0 mm 5 m/S 613 mmHg 9%
    11:00 +32°C° 0 mm 4 m/S 613 mmHg 8%
    12:00 +33°C° 0 mm 4 m/S 612 mmHg 7%
    13:00 +34°C° 0 mm 3 m/S 612 mmHg 6%
    14:00 +33°C° 0 mm 4 m/S 611 mmHg 7%
    15:00 +33°C° 0 mm 4 m/S 611 mmHg 7%
    16:00 +32°C° 0 mm 4 m/S 610 mmHg 8%
    17:00 +27°C° 0 mm 3 m/S 609 mmHg 18%
    18:00 +22°C° 0 mm 3 m/S 608 mmHg 27%
    19:00 +17°C° 0 mm 2 m/S 607 mmHg 37%
    20:00 +17°C° 0 mm 2 m/S 608 mmHg 35%
    21:00 +16°C° 0 mm 2 m/S 608 mmHg 33%
    22:00 +16°C° 0 mm 2 m/S 608 mmHg 31%
    23:00 +16°C° 0 mm 1 m/S 608 mmHg 31%

    Morgen, 16 September, Montag

    Zeit Temperatur Niederschläge Wind Luftdruck Luftfeuchtigkeit
    00:00 +15°C° 0 mm 1 m/S 607 mmHg 31%
    01:00 +15°C° 0 mm 1 m/S 607 mmHg 31%
    02:00 +15°C° 0 mm 1 m/S 607 mmHg 30%
    03:00 +15°C° 0 mm 2 m/S 607 mmHg 29%
    04:00 +16°C° 0 mm 2 m/S 607 mmHg 28%
    05:00 +16°C° 0 mm 2 m/S 608 mmHg 25%
    06:00 +17°C° 0 mm 2 m/S 608 mmHg 23%
    07:00 +18°C° 0 mm 2 m/S 609 mmHg 20%
    08:00 +21°C° 0 mm 2 m/S 610 mmHg 17%
    09:00 +26°C° 0 mm 3 m/S 611 mmHg 14%
    10:00 +29°C° 0 mm 3 m/S 612 mmHg 10%
    11:00 +30°C° 0 mm 3 m/S 612 mmHg 10%
    12:00 +32°C° 0 mm 4 m/S 612 mmHg 10%
    13:00 +33°C° 0 mm 4 m/S 611 mmHg 10%
    14:00 +33°C° 0 mm 4 m/S 611 mmHg 11%
    15:00 +33°C° 0 mm 3 m/S 611 mmHg 12%
    16:00 +31°C° 0 mm 3 m/S 610 mmHg 14%
    17:00 +27°C° 0 mm 2 m/S 609 mmHg 24%
    18:00 +23°C° 0 mm 2 m/S 608 mmHg 35%
    19:00 +19°C° 0 mm 1 m/S 608 mmHg 46%
    20:00 +18°C° 0 mm 1 m/S 608 mmHg 48%
    21:00 +18°C° 0 mm 1 m/S 608 mmHg 50%
    22:00 +16°C° 0 mm 1 m/S 608 mmHg 52%
    23:00 +16°C° 0 mm 1 m/S 608 mmHg 52%

    übermorgen, 17 September, Dienstag

    Zeit Temperatur Niederschläge Wind Luftdruck Luftfeuchtigkeit
    00:00 +16°C° 0 mm 1 m/S 608 mmHg 52%
    01:00 +16°C° 0 mm 1 m/S 608 mmHg 52%
    02:00 +15°C° 0 mm 1 m/S 607 mmHg 54%
    03:00 +15°C° 0 mm 1 m/S 607 mmHg 55%
    04:00 +14°C° 0 mm 1 m/S 607 mmHg 56%
    05:00 +16°C° 0 mm 1 m/S 608 mmHg 51%
    06:00 +18°C° 0 mm 1 m/S 609 mmHg 47%
    07:00 +17°C° 0 mm 0 m/S 609 mmHg 43%
    08:00 +22°C° 0 mm 1 m/S 610 mmHg 35%
    09:00 +26°C° 0 mm 2 m/S 611 mmHg 28%
    10:00 +29°C° 0 mm 2 m/S 612 mmHg 20%
    11:00 +30°C° 0 mm 3 m/S 612 mmHg 19%
    12:00 +31°C° 0 mm 3 m/S 612 mmHg 18%
    13:00 +33°C° 0 mm 4 m/S 611 mmHg 17%
    14:00 +31°C° 0 mm 3 m/S 611 mmHg 18%
    15:00 +31°C° 0 mm 3 m/S 610 mmHg 19%
    16:00 +30°C° 0 mm 3 m/S 610 mmHg 19%
    17:00 +26°C° 0 mm 2 m/S 609 mmHg 33%
    18:00 +23°C° 0 mm 2 m/S 608 mmHg 47%
    19:00 +19°C° 0 mm 1 m/S 607 mmHg 61%
    20:00 +18°C° 0 mm 1 m/S 608 mmHg 62%
    21:00 +18°C° 0 mm 1 m/S 608 mmHg 64%
    22:00 +16°C° 0 mm 1 m/S 608 mmHg 65%
    23:00 +16°C° 0 mm 1 m/S 608 mmHg 64%

    18 September, Mittwoch

    Zeit Temperatur Niederschläge Wind Luftdruck Luftfeuchtigkeit
    00:00 +14°C° 0 mm 0 m/S 608 mmHg 64%
    01:00 +14°C° 0 mm 0 m/S 607 mmHg 63%
    02:00 +15°C° 0 mm 1 m/S 607 mmHg 63%
    03:00 +14°C° 0 mm 1 m/S 607 mmHg 62%
    04:00 +14°C° 0 mm 1 m/S 607 mmHg 62%
    05:00 +15°C° 0 mm 1 m/S 608 mmHg 56%
    06:00 +18°C° 0 mm 1 m/S 609 mmHg 50%
    07:00 +19°C° 0 mm 1 m/S 609 mmHg 44%
    08:00 +21°C° 0 mm 2 m/S 610 mmHg 35%
    09:00 +25°C° 0 mm 3 m/S 612 mmHg 26%
    10:00 +29°C° 0 mm 4 m/S 613 mmHg 18%
    11:00 +30°C° 0 mm 3 m/S 612 mmHg 17%
    12:00 +31°C° 0 mm 3 m/S 612 mmHg 17%
    13:00 +33°C° 0 mm 3 m/S 612 mmHg 16%
    14:00 +31°C° 0 mm 3 m/S 611 mmHg 18%
    15:00 +31°C° 0 mm 3 m/S 611 mmHg 19%
    16:00 +30°C° 0 mm 3 m/S 610 mmHg 21%
    17:00 +26°C° 0 mm 2 m/S 609 mmHg 36%
    18:00 +21°C° 0 mm 2 m/S 608 mmHg 50%
    19:00 +18°C° 0 mm 1 m/S 608 mmHg 65%
    20:00 +16°C° 0 mm 1 m/S 608 mmHg 64%
    21:00 +16°C° 0 mm 1 m/S 608 mmHg 63%
    22:00 +14°C° 0 mm 0 m/S 608 mmHg 62%
    23:00 +15°C° 0 mm 1 m/S 608 mmHg 59%

    19 September, Donnerstag

    Zeit Temperatur Niederschläge Wind Luftdruck Luftfeuchtigkeit
    00:00 +15°C° 0 mm 1 m/S 608 mmHg 56%
    01:00 +15°C° 0 mm 1 m/S 608 mmHg 53%
    02:00 +15°C° 0 mm 1 m/S 608 mmHg 52%
    03:00 +14°C° 0 mm 1 m/S 608 mmHg 51%
    04:00 +14°C° 0 mm 1 m/S 607 mmHg 50%
    05:00 +15°C° 0 mm 1 m/S 608 mmHg 45%
    06:00 +18°C° 0 mm 1 m/S 609 mmHg 40%
    07:00 +19°C° 0 mm 1 m/S 610 mmHg 35%
    08:00 +21°C° 0 mm 2 m/S 611 mmHg 30%
    09:00 +26°C° 0 mm 3 m/S 612 mmHg 24%
    10:00 +29°C° 0 mm 4 m/S 613 mmHg 19%
    11:00 +29°C° 0 mm 4 m/S 612 mmHg 19%
    12:00 +30°C° 0 mm 4 m/S 612 mmHg 19%
    13:00 +31°C° 0 mm 3 m/S 612 mmHg 19%
    14:00 +30°C° 0 mm 4 m/S 611 mmHg 22%
    15:00 +29°C° 0 mm 4 m/S 610 mmHg 26%
    16:00 +28°C° 0 mm 4 m/S 609 mmHg 30%
    17:00 +24°C° 0 mm 3 m/S 609 mmHg 43%
    18:00 +19°C° 0 mm 2 m/S 608 mmHg 57%
    19:00 +15°C° 0 mm 2 m/S 607 mmHg 70%
    20:00 +15°C° 0 mm 1 m/S 607 mmHg 72%
    21:00 +14°C° 0 mm 1 m/S 608 mmHg 75%
    22:00 +13°C° 0 mm 1 m/S 608 mmHg 77%
    23:00 +13°C° 0 mm 1 m/S 608 mmHg 77%

    20 September, Freitag

    Zeit Temperatur Niederschläge Wind Luftdruck Luftfeuchtigkeit
    00:00 +13°C° 0 mm 1 m/S 608 mmHg 77%
    01:00 +12°C° 0 mm 1 m/S 607 mmHg 77%
    02:00 +13°C° 0 mm 1 m/S 607 mmHg 72%
    03:00 +13°C° 0 mm 1 m/S 607 mmHg 67%
    04:00 +13°C° 0 mm 1 m/S 607 mmHg 61%
    05:00 +15°C° 0 mm 1 m/S 608 mmHg 55%
    06:00 +16°C° 0 mm 1 m/S 609 mmHg 49%
    07:00 +18°C° 0 mm 1 m/S 610 mmHg 42%
    08:00 +21°C° 0 mm 2 m/S 611 mmHg 33%
    09:00 +25°C° 0 mm 3 m/S 612 mmHg 25%
    10:00 +29°C° 0 mm 4 m/S 613 mmHg 16%
    11:00 +30°C° 0 mm 4 m/S 613 mmHg 15%
    12:00 +32°C° 0 mm 4 m/S 612 mmHg 14%
    13:00 +33°C° 0 mm 3 m/S 612 mmHg 13%
    14:00 +32°C° 0 mm 4 m/S 611 mmHg 17%
    15:00 +30°C° 0 mm 4 m/S 610 mmHg 20%
    16:00 +28°C° 0 mm 4 m/S 610 mmHg 24%
    17:00 +24°C° 0 mm 3 m/S 609 mmHg 36%
    18:00 +19°C° 0 mm 2 m/S 608 mmHg 48%
    19:00 +16°C° 0 mm 1 m/S 607 mmHg 61%
    20:00 +15°C° 0 mm 1 m/S 607 mmHg 61%
    21:00 +15°C° 0 mm 1 m/S 608 mmHg 60%
    22:00 +15°C° 0 mm 1 m/S 608 mmHg 60%
    23:00 +14°C° 0 mm 1 m/S 608 mmHg 59%
    Mehr zeigen